When you browse on this site, cookies collect data to enhance your experience and personalize the content and advertising you see.
Visit our Privacy Policy to learn more. By continuing to use the site, you agree to this use of cookies and data.
  • In Sweden
  • List of Countries
  • For 7 days
  • Water Temperature
  • Weather Map
  • Weather Widgets
  • user-avatar
    Login

    Hourly Weather Chorley

    Today, 21 September, Saturday

    Time Temperature Precipitation Wind Pressure Humidity
    00:00 +12°C° 0 mm 4 mps 752 mmHg 75%
    01:00 +12°C° 0 mm 5 mps 751 mmHg 75%
    02:00 +12°C° 0 mm 5 mps 751 mmHg 76%
    03:00 +10°C° 0 mm 5 mps 750 mmHg 76%
    04:00 +10°C° 0 mm 5 mps 749 mmHg 76%
    05:00 +10°C° 0 mm 5 mps 749 mmHg 77%
    06:00 +10°C° 0 mm 5 mps 749 mmHg 77%
    07:00 +12°C° 0 mm 5 mps 748 mmHg 73%
    08:00 +14°C° 0 mm 6 mps 748 mmHg 69%
    09:00 +15°C° 0 mm 6 mps 748 mmHg 64%
    10:00 +16°C° 0 mm 6 mps 747 mmHg 61%
    11:00 +19°C° 0 mm 6 mps 747 mmHg 58%
    12:00 +20°C° 0 mm 7 mps 746 mmHg 55%
    13:00 +20°C° 0 mm 6 mps 746 mmHg 55%
    14:00 +21°C° 0 mm 6 mps 745 mmHg 56%
    15:00 +21°C° 0 mm 6 mps 745 mmHg 56%
    16:00 +20°C° 0 mm 5 mps 744 mmHg 58%
    17:00 +19°C° 0 mm 5 mps 744 mmHg 60%
    18:00 +17°C° 0 mm 5 mps 744 mmHg 63%
    19:00 +16°C° 0 mm 5 mps 744 mmHg 63%
    20:00 +16°C° 0 mm 5 mps 743 mmHg 64%
    21:00 +15°C° 0 mm 4 mps 743 mmHg 65%
    22:00 +15°C° 0.1 mm 4 mps 743 mmHg 68%
    23:00 +15°C° 0.1 mm 4 mps 742 mmHg 71%

    Tomorrow, 22 September, Sunday

    Time Temperature Precipitation Wind Pressure Humidity
    00:00 +15°C° 0.1 mm 4 mps 742 mmHg 74%
    01:00 +15°C° 0.1 mm 4 mps 742 mmHg 75%
    02:00 +15°C° 0.1 mm 4 mps 741 mmHg 77%
    03:00 +16°C° 0.1 mm 3 mps 741 mmHg 78%
    04:00 +15°C° 0.1 mm 4 mps 740 mmHg 80%
    05:00 +15°C° 0.1 mm 4 mps 740 mmHg 81%
    06:00 +15°C° 0.1 mm 4 mps 740 mmHg 83%
    07:00 +15°C° 0.1 mm 4 mps 739 mmHg 83%
    08:00 +15°C° 0.1 mm 4 mps 739 mmHg 84%
    09:00 +17°C° 0.1 mm 4 mps 739 mmHg 85%
    10:00 +18°C° 0.4 mm 4 mps 739 mmHg 84%
    11:00 +19°C° 0.4 mm 4 mps 739 mmHg 82%
    12:00 +20°C° 0.4 mm 4 mps 739 mmHg 81%
    13:00 +19°C° 1.4 mm 4 mps 739 mmHg 83%
    14:00 +17°C° 1.4 mm 3 mps 739 mmHg 85%
    15:00 +16°C° 1.4 mm 3 mps 739 mmHg 87%
    16:00 +16°C° 0.2 mm 2 mps 739 mmHg 87%
    17:00 +16°C° 0.2 mm 2 mps 739 mmHg 87%
    18:00 +16°C° 0.2 mm 2 mps 740 mmHg 86%
    19:00 +15°C° 0.1 mm 2 mps 740 mmHg 87%
    20:00 +15°C° 0.1 mm 2 mps 740 mmHg 87%
    21:00 +15°C° 0.1 mm 2 mps 741 mmHg 88%
    22:00 +14°C° 0 mm 2 mps 741 mmHg 89%
    23:00 +14°C° 0 mm 2 mps 741 mmHg 89%

    Day after tomorrow, 23 September, Monday

    Time Temperature Precipitation Wind Pressure Humidity
    00:00 +12°C° 0 mm 3 mps 741 mmHg 90%
    01:00 +12°C° 0 mm 3 mps 742 mmHg 90%
    02:00 +12°C° 0 mm 3 mps 742 mmHg 91%
    03:00 +12°C° 0 mm 3 mps 742 mmHg 91%
    04:00 +12°C° 0 mm 3 mps 743 mmHg 91%
    05:00 +11°C° 0 mm 3 mps 743 mmHg 90%
    06:00 +11°C° 0 mm 3 mps 743 mmHg 90%
    07:00 +12°C° 0 mm 3 mps 743 mmHg 85%
    08:00 +13°C° 0 mm 3 mps 743 mmHg 81%
    09:00 +14°C° 0 mm 3 mps 744 mmHg 77%
    10:00 +15°C° 0 mm 4 mps 744 mmHg 73%
    11:00 +15°C° 0 mm 4 mps 744 mmHg 70%
    12:00 +16°C° 0 mm 5 mps 744 mmHg 66%
    13:00 +16°C° 0 mm 5 mps 743 mmHg 66%
    14:00 +16°C° 0 mm 5 mps 743 mmHg 67%
    15:00 +16°C° 0 mm 5 mps 742 mmHg 67%
    16:00 +15°C° 0.5 mm 6 mps 742 mmHg 73%
    17:00 +14°C° 0.5 mm 6 mps 741 mmHg 79%
    18:00 +13°C° 0.5 mm 6 mps 741 mmHg 86%
    19:00 +14°C° 0.5 mm 6 mps 741 mmHg 87%
    20:00 +14°C° 0.5 mm 6 mps 740 mmHg 89%
    21:00 +14°C° 0.5 mm 6 mps 740 mmHg 91%
    22:00 +14°C° 1 mm 5 mps 740 mmHg 92%
    23:00 +14°C° 1 mm 5 mps 739 mmHg 93%

    24 September, Tuesday

    Time Temperature Precipitation Wind Pressure Humidity
    00:00 +15°C° 1 mm 4 mps 739 mmHg 94%
    01:00 +15°C° 0.7 mm 4 mps 738 mmHg 94%
    02:00 +15°C° 0.7 mm 4 mps 738 mmHg 94%
    03:00 +16°C° 0.7 mm 3 mps 737 mmHg 94%
    04:00 +16°C° 0.4 mm 3 mps 737 mmHg 95%
    05:00 +14°C° 0.4 mm 3 mps 736 mmHg 95%
    06:00 +14°C° 0.4 mm 3 mps 736 mmHg 95%
    07:00 +16°C° 0.3 mm 3 mps 735 mmHg 93%
    08:00 +17°C° 0.3 mm 3 mps 735 mmHg 91%
    09:00 +17°C° 0.3 mm 3 mps 735 mmHg 88%
    10:00 +17°C° 1.1 mm 3 mps 734 mmHg 89%
    11:00 +17°C° 1.1 mm 3 mps 734 mmHg 89%
    12:00 +17°C° 1.1 mm 3 mps 734 mmHg 89%
    13:00 +15°C° 2.2 mm 4 mps 733 mmHg 90%
    14:00 +14°C° 2.2 mm 4 mps 733 mmHg 91%
    15:00 +13°C° 2.2 mm 5 mps 733 mmHg 91%
    16:00 +13°C° 1 mm 4 mps 733 mmHg 91%
    17:00 +13°C° 1 mm 3 mps 733 mmHg 90%
    18:00 +14°C° 1 mm 1 mps 733 mmHg 89%
    19:00 +14°C° 0.1 mm 2 mps 733 mmHg 90%
    20:00 +14°C° 0.1 mm 2 mps 733 mmHg 90%
    21:00 +14°C° 0.1 mm 2 mps 733 mmHg 90%
    22:00 +13°C° 0 mm 3 mps 733 mmHg 90%
    23:00 +13°C° 0 mm 3 mps 733 mmHg 90%

    25 September, Wednesday

    Time Temperature Precipitation Wind Pressure Humidity
    00:00 +13°C° 0 mm 3 mps 732 mmHg 90%
    01:00 +13°C° 0.1 mm 3 mps 732 mmHg 91%
    02:00 +13°C° 0.1 mm 3 mps 732 mmHg 91%
    03:00 +13°C° 0.1 mm 3 mps 732 mmHg 92%
    04:00 +14°C° 0.1 mm 2 mps 732 mmHg 92%
    05:00 +14°C° 0.1 mm 2 mps 732 mmHg 93%
    06:00 +14°C° 0.1 mm 1 mps 732 mmHg 93%
    07:00 +14°C° 0.2 mm 1 mps 732 mmHg 92%
    08:00 +14°C° 0.2 mm 2 mps 733 mmHg 92%
    09:00 +15°C° 0.2 mm 2 mps 733 mmHg 91%
    10:00 +13°C° 0.5 mm 3 mps 733 mmHg 92%
    11:00 +13°C° 0.5 mm 3 mps 734 mmHg 92%
    12:00 +13°C° 0.5 mm 4 mps 734 mmHg 92%
    13:00 +13°C° 0.5 mm 5 mps 734 mmHg 92%
    14:00 +13°C° 0.5 mm 5 mps 734 mmHg 91%
    15:00 +13°C° 0.5 mm 6 mps 734 mmHg 90%
    16:00 +13°C° 0.2 mm 5 mps 735 mmHg 90%
    17:00 +13°C° 0.2 mm 5 mps 735 mmHg 90%
    18:00 +13°C° 0.2 mm 5 mps 735 mmHg 90%
    19:00 +13°C° 0.1 mm 4 mps 735 mmHg 91%
    20:00 +13°C° 0.1 mm 4 mps 736 mmHg 91%
    21:00 +13°C° 0.1 mm 3 mps 736 mmHg 91%
    22:00 +13°C° 0 mm 3 mps 736 mmHg 92%
    23:00 +12°C° 0 mm 3 mps 736 mmHg 92%

    26 September, Thursday

    Time Temperature Precipitation Wind Pressure Humidity
    00:00 +12°C° 0 mm 3 mps 736 mmHg 93%
    01:00 +12°C° 0.1 mm 3 mps 737 mmHg 93%
    02:00 +12°C° 0.1 mm 4 mps 737 mmHg 93%
    03:00 +13°C° 0.1 mm 5 mps 737 mmHg 94%
    04:00 +12°C° 0.3 mm 5 mps 737 mmHg 89%
    05:00 +12°C° 0.3 mm 5 mps 738 mmHg 85%
    06:00 +11°C° 0.3 mm 6 mps 738 mmHg 81%
    07:00 +11°C° 0.1 mm 6 mps 738 mmHg 78%
    08:00 +13°C° 0.1 mm 6 mps 739 mmHg 75%
    09:00 +13°C° 0.1 mm 6 mps 739 mmHg 72%
    10:00 +12°C° 0.1 mm 7 mps 740 mmHg 69%
    11:00 +14°C° 0.1 mm 7 mps 740 mmHg 66%
    12:00 +14°C° 0.1 mm 7 mps 740 mmHg 63%
    13:00 +14°C° 0.1 mm 7 mps 740 mmHg 64%
    14:00 +14°C° 0.1 mm 7 mps 740 mmHg 64%
    15:00 +14°C° 0.1 mm 6 mps 740 mmHg 65%
    16:00 +13°C° 0 mm 6 mps 741 mmHg 68%
    17:00 +12°C° 0 mm 5 mps 741 mmHg 71%
    18:00 +11°C° 0 mm 4 mps 741 mmHg 75%
    19:00 +11°C° 0.1 mm 4 mps 742 mmHg 77%
    20:00 +11°C° 0.1 mm 4 mps 742 mmHg 79%
    21:00 +11°C° 0.1 mm 4 mps 743 mmHg 81%
    22:00 +10°C° 0.1 mm 4 mps 743 mmHg 82%
    23:00 +10°C° 0.1 mm 4 mps 743 mmHg 83%
    Show more